Wind_Speed
68 69 70 73 76 80 85 90 94 96 94 97 102 106 112 115 116 114 111 108 104 101 97 94 92 90 88 88 88 88 89 89 90 92 94 96 99 102
69 71 74 78 82 87 92 97 102 107 107 105 109 112 114 113 110 106 101 96 92 88 85 84 82 81 80 79 80 80 80 81 82 83 84 87 89 92
72 75 79 84 88 93 98 103 108 113 117 114 112 109 105 100 95 91 89 87 84 81 80 78 76 76 75 75 74 74 74 74 75 76 77 79 81 83
76 81 86 90 95 100 104 109 113 116 117 115 107 97 90 85 82 81 81 81 79 77 74 72 71 70 69 68 67 67 67 67 68 69 71 72 73 75
82 87 92 97 101 106 110 113 114 113 109 104 96 87 81 78 77 74 73 71 69 67 65 63 62 61 60 60 60 60 59 59 60 61 63 65 67 69
89 94 99 103 108 111 113 113 110 104 96 91 86 80 75 70 67 63 58 55 53 53 53 53 53 53 53 53 53 52 52 52 52 53 55 58 61 64
94 99 104 108 112 113 112 107 100 93 86 81 76 70 63 58 54 51 48 44 41 44 45 45 46 46 47 48 48 47 46 46 46 47 48 51 55 59
99 104 108 110 111 108 102 95 88 82 76 70 64 58 52 49 45 43 39 35 33 36 39 37 41 41 41 41 41 40 39 39 39 41 43 46 49 54
104 107 109 108 104 97 89 81 74 67 63 58 53 48 44 41 38 35 34 33 32 33 35 32 35 36 36 35 35 35 35 34 34 35 37 40 43 48
106 108 106 99 91 85 78 69 60 54 49 46 43 41 38 37 35 33 31 28 27 31 32 28 28 29 30 30 30 30 29 30 31 33 35 37 39 43
104 102 96 88 80 73 66 57 49 43 39 37 36 35 34 33 33 30 28 26 23 25 28 26 23 23 23 24 24 24 24 25 26 28 30 32 34 38
98 90 83 76 68 61 53 46 39 33 30 28 28 29 29 30 31 31 29 26 22 21 23 22 21 19 18 20 20 20 21 21 22 22 22 23 26 30
88 79 70 63 56 49 43 37 31 27 24 23 23 24 26 27 28 29 29 27 23 21 20 19 18 17 16 16 17 17 17 18 18 18 16 15 17 21
77 68 59 51 44 39 34 28 25 23 22 22 22 23 23 24 25 26 27 27 24 21 20 18 16 15 14 14 13 14 14 15 15 13 10 5 8 17
66 57 48 41 36 31 26 23 21 20 20 21 21 22 22 22 23 24 25 26 25 22 20 18 15 13 12 12 13 14 15 15 14 11 7 8 15 25
53 45 38 34 30 25 22 21 19 20 20 20 20 21 22 23 23 23 22 22 22 21 19 16 14 12 12 13 15 17 18 18 16 14 14 19 26 34
43 36 31 27 24 23 22 20 21 21 21 21 21 21 22 22 23 22 22 22 20 18 15 14 12 12 13 15 17 18 19 19 20 19 20 24 30 35
35 29 25 21 20 19 19 20 20 20 20 21 21 21 21 21 22 21 21 20 19 16 13 12 11 12 14 16 18 19 20 21 21 20 21 24 28 32
29 24 21 19 19 18 19 19 20 20 21 21 21 21 21 21 20 20 19 18 17 14 11 10 10 12 15 16 17 18 20 22 22 22 21 22 26 29
24 20 19 18 18 18 19 20 21 22 22 22 21 21 21 20 18 18 17 16 14 12 9 8 9 12 14 15 16 17 19 21 21 21 21 21 23 26
19 18 17 17 18 18 20 21 22 23 23 23 22 21 20 18 16 15 15 14 12 10 8 7 8 11 13 14 15 16 17 20 21 21 22 22 23 24
16 16 16 17 18 19 21 23 23 24 24 23 22 19 17 16 14 13 12 11 10 8 7 7 8 11 13 14 15 16 17 19 20 21 22 22 22 22
15 15 17 18 20 21 23 24 24 24 24 22 20 17 15 14 12 11 10 8 7 6 5 6 8 10 12 14 15 16 17 18 19 20 21 22 22 23
Wind_Direction
304 304 304 304 305 305 305 304 304 302 301 301 301 300 300 299 297 295 292 290 287 285 283 281 279 277 275 273 271 269 267 265 262 260 257 255 253 251
305 305 305 306 306 306 306 306 305 305 304 303 302 301 300 298 296 293 291 289 287 286 284 282 281 279 277 275 272 270 268 265 263 260 257 255 252 250
306 306 307 307 307 307 307 306 306 306 305 304 303 302 299 296 293 292 290 289 288 287 286 284 283 280 278 276 274 271 268 265 263 260 257 254 252 249
307 307 308 308 308 307 307 307 307 306 306 305 304 301 298 295 293 291 290 289 288 287 286 284 282 281 279 277 274 272 269 267 264 260 257 254 252 249
309 309 309 309 309 308 308 308 308 307 306 304 304 302 300 297 294 292 290 289 289 288 286 285 283 281 279 277 275 273 271 269 265 262 258 254 251 248
310 310 310 310 310 309 309 309 308 307 306 304 304 303 302 300 297 295 294 292 291 289 287 285 283 282 280 278 277 276 275 271 267 263 259 255 251 247
311 311 311 311 311 312 311 310 309 307 306 305 305 305 305 303 301 301 300 297 294 291 287 286 285 284 283 282 281 279 276 273 269 265 261 257 252 248
312 312 312 313 313 312 311 310 309 308 307 307 307 307 307 307 307 307 306 302 298 291 290 289 288 288 287 286 285 283 282 279 274 269 264 259 253 248
314 314 314 314 314 313 311 310 309 308 307 308 309 310 311 312 313 313 312 309 304 296 292 291 289 290 290 289 288 288 287 285 281 275 269 262 255 248
316 316 316 315 314 313 313 312 312 311 310 310 311 313 316 318 320 322 322 320 314 305 301 301 297 295 294 293 292 292 292 289 286 280 274 266 257 248
318 318 317 316 316 315 315 316 316 315 314 314 315 319 322 325 327 329 331 331 326 315 313 315 310 306 304 301 301 302 301 299 295 288 279 269 257 246
319 318 317 317 317 317 318 319 319 319 319 319 321 324 328 331 333 335 338 340 336 325 321 323 321 321 317 313 315 315 314 311 307 300 289 273 255 241
321 320 319 318 318 319 320 322 325 327 327 328 331 333 336 338 339 340 341 342 343 339 334 333 330 329 330 328 326 327 328 326 324 318 304 279 251 226
322 322 321 321 321 322 324 327 330 333 335 337 340 343 345 345 346 346 346 348 350 351 350 348 345 343 345 345 345 348 351 350 348 343 332 284 206 186
323 323 324 324 325 327 329 333 336 340 343 345 347 347 348 349 351 351 352 352 354 358 0 0 1 4 7 11 18 23 22 21 19 23 47 112 139 147
324 324 325 326 329 332 336 340 344 347 349 349 348 348 348 349 352 354 355 356 358 359 4 9 15 24 32 41 48 44 45 46 48 61 91 115 129 137
326 326 328 330 333 336 341 346 347 347 348 348 348 348 348 349 351 354 357 360 3 6 10 18 31 43 54 66 62 59 60 62 66 78 105 122 131 138
329 330 332 335 338 341 343 344 346 346 346 346 346 347 347 348 350 353 357 1 6 11 19 33 50 62 75 77 73 70 70 73 76 85 107 127 137 142
332 335 338 341 343 345 346 347 346 345 344 343 343 344 345 346 348 352 356 0 7 15 28 49 67 80 87 84 83 80 78 78 80 86 102 125 139 146
336 339 342 344 346 348 349 348 346 344 343 341 340 340 342 344 346 351 355 0 8 19 38 64 84 97 100 96 93 90 88 86 90 92 100 118 136 146
339 343 346 349 350 351 350 348 346 344 342 340 337 336 337 340 343 348 354 2 12 25 45 76 102 112 113 109 104 101 97 96 97 100 103 113 128 142
347 351 354 355 354 353 350 348 347 345 343 341 339 337 337 339 342 345 350 359 14 30 54 86 116 128 129 125 118 112 108 105 104 106 111 115 122 133
354 357 357 356 353 351 348 345 344 343 343 343 343 343 343 344 345 345 346 354 12 34 66 99 124 140 146 143 135 127 121 117 115 114 118 121 125 131
Height
5612 5603 5594 5584 5574 5562 5550 5537 5526 5522 5523 5515 5498 5481 5462 5445 5429 5414 5402 5392 5383 5376 5370 5364 5360 5356 5352 5350 5348 5348 5348 5349 5352 5355 5359 5364 5371 5378
5595 5586 5576 5566 5555 5542 5529 5515 5498 5484 5482 5484 5468 5451 5431 5411 5393 5377 5365 5356 5349 5343 5337 5333 5329 5325 5322 5319 5318 5317 5317 5318 5320 5323 5326 5331 5337 5343
5578 5568 5557 5546 5534 5520 5505 5490 5473 5453 5440 5441 5433 5416 5398 5381 5365 5349 5335 5326 5320 5315 5309 5304 5300 5296 5293 5291 5289 5289 5289 5289 5291 5293 5297 5301 5306 5313
5561 5549 5537 5524 5511 5495 5480 5464 5446 5426 5404 5392 5391 5380 5366 5351 5338 5327 5315 5303 5295 5290 5284 5279 5275 5271 5268 5265 5264 5263 5263 5263 5265 5267 5271 5276 5281 5285
5541 5528 5515 5501 5486 5470 5453 5435 5416 5398 5377 5357 5350 5343 5335 5323 5311 5302 5292 5283 5274 5267 5262 5257 5252 5248 5245 5243 5241 5241 5241 5241 5243 5244 5246 5250 5255 5261
5521 5506 5490 5474 5457 5440 5423 5404 5385 5368 5351 5335 5323 5315 5307 5297 5285 5277 5272 5265 5257 5250 5244 5238 5234 5230 5227 5224 5223 5222 5221 5221 5221 5222 5224 5227 5232 5238
5500 5483 5466 5448 5428 5408 5389 5371 5354 5339 5325 5313 5302 5293 5285 5276 5267 5260 5254 5250 5244 5235 5229 5225 5219 5215 5212 5208 5206 5205 5204 5203 5204 5204 5205 5208 5211 5216
5478 5461 5442 5422 5402 5383 5363 5345 5328 5314 5302 5292 5284 5275 5268 5260 5254 5247 5241 5236 5233 5225 5217 5214 5207 5203 5199 5196 5193 5190 5188 5188 5187 5187 5188 5189 5192 5196
5452 5434 5416 5396 5375 5357 5341 5327 5313 5299 5287 5277 5270 5263 5256 5250 5244 5239 5232 5225 5220 5213 5206 5204 5198 5193 5189 5185 5182 5179 5177 5175 5173 5172 5172 5172 5174 5177
5427 5406 5387 5370 5351 5334 5321 5309 5298 5287 5277 5268 5261 5254 5248 5241 5235 5229 5223 5218 5211 5203 5196 5194 5191 5185 5181 5177 5173 5170 5167 5164 5161 5159 5157 5156 5157 5160
5406 5383 5361 5345 5331 5316 5303 5293 5285 5277 5268 5260 5253 5247 5241 5235 5228 5223 5217 5211 5206 5198 5191 5187 5183 5179 5175 5170 5166 5163 5160 5156 5152 5147 5143 5141 5141 5143
5388 5366 5345 5328 5314 5302 5291 5283 5276 5269 5263 5257 5250 5244 5237 5231 5224 5217 5211 5206 5201 5195 5188 5183 5178 5174 5171 5166 5162 5158 5154 5149 5144 5138 5133 5130 5129 5131
5363 5347 5331 5316 5303 5293 5284 5276 5269 5263 5258 5253 5247 5242 5235 5229 5222 5215 5208 5202 5197 5191 5186 5181 5176 5171 5167 5165 5160 5156 5150 5144 5138 5132 5127 5123 5122 5124
5342 5329 5317 5305 5295 5287 5279 5272 5266 5261 5255 5250 5244 5239 5233 5228 5221 5214 5207 5200 5194 5189 5184 5179 5175 5171 5167 5163 5159 5155 5149 5143 5136 5131 5126 5122 5121 5124
5329 5317 5306 5297 5290 5282 5276 5270 5265 5259 5253 5248 5243 5238 5232 5226 5220 5214 5207 5201 5194 5189 5184 5179 5175 5171 5168 5164 5160 5156 5151 5145 5139 5134 5130 5128 5128 5132
5321 5310 5301 5292 5285 5279 5274 5268 5262 5257 5252 5247 5242 5237 5231 5225 5220 5214 5208 5202 5196 5190 5186 5181 5177 5174 5170 5167 5163 5159 5155 5151 5146 5142 5140 5140 5142 5148
5313 5304 5297 5290 5283 5277 5271 5266 5261 5255 5250 5246 5241 5236 5230 5225 5219 5213 5208 5202 5197 5192 5188 5184 5181 5178 5175 5172 5169 5166 5162 5159 5156 5153 5152 5154 5158 5164
5306 5299 5293 5287 5281 5276 5270 5265 5260 5255 5250 5245 5240 5234 5229 5224 5219 5213 5208 5203 5198 5194 5190 5187 5185 5182 5181 5179 5176 5174 5171 5168 5166 5165 5165 5168 5172 5178
5301 5295 5290 5285 5280 5274 5269 5264 5259 5254 5249 5243 5238 5233 5228 5223 5218 5213 5209 5204 5200 5196 5193 5190 5189 5187 5186 5184 5183 5181 5179 5177 5176 5176 5177 5179 5184 5189
5298 5293 5288 5283 5278 5273 5268 5263 5258 5252 5247 5241 5236 5231 5227 5222 5218 5213 5209 5205 5202 5198 5196 5194 5193 5192 5191 5190 5190 5189 5187 5186 5186 5186 5187 5189 5193 5199
5297 5292 5287 5282 5277 5272 5267 5262 5256 5251 5245 5239 5234 5229 5225 5221 5217 5213 5209 5206 5203 5200 5198 5196 5196 5196 5196 5196 5196 5196 5195 5195 5195 5196 5198 5200 5203 5207
5296 5291 5287 5282 5277 5272 5266 5260 5255 5249 5243 5237 5231 5227 5223 5219 5216 5212 5209 5207 5204 5202 5200 5199 5199 5199 5200 5201 5201 5202 5203 5203 5204 5205 5207 5210 5213 5216
5295 5291 5286 5281 5276 5271 5265 5259 5253 5247 5241 5235 5230 5225 5221 5218 5214 5212 5209 5207 5205 5203 5202 5201 5201 5202 5203 5204 5206 5207 5209 5210 5212 5214 5215 5217 5221 5224